Theta_e
308 308 308 309 309 309 309 309 309 309 309 309 309 309 310 310 310 311 311 312 312 312 312 313 312 312 312 312 312 311 311 310 311 312 313 315 309 312 316 317 317 314 311 311 310 311 312 311 313 315 316 317 318 319 319 317 315 314 315 315 314 314 313 314 315 316 317 318 319 319 320 320 320 323 326 325 336 345 345 343 343 345 349 349 350 350 350 351
308 308 308 308 309 309 309 309 309 309 309 309 309 309 309 310 309 310 311 311 312 312 312 312 312 312 312 312 312 311 311 312 313 313 316 311 307 311 315 317 318 317 313 311 310 311 313 312 313 315 316 317 317 318 318 316 315 314 316 316 314 314 314 315 316 317 318 319 319 319 319 321 320 326 331 326 333 343 348 347 347 351 352 351 349 350 350 347
308 308 308 308 308 308 308 309 309 309 309 309 309 309 309 309 309 310 310 311 311 312 312 312 313 312 312 312 311 310 310 313 315 317 318 314 313 310 312 317 318 317 315 311 309 312 313 313 314 315 316 318 318 318 317 316 315 314 315 316 315 315 315 315 316 316 317 318 319 319 318 320 322 326 332 329 332 340 346 349 351 353 354 351 349 350 348 341
307 307 308 308 307 308 308 308 308 309 309 309 309 309 309 309 309 310 310 311 311 311 312 312 312 311 312 312 310 310 311 316 321 321 318 317 318 311 311 317 318 315 314 311 309 312 314 314 315 315 317 318 318 317 316 315 314 314 315 314 315 315 315 315 317 316 317 319 319 320 318 319 321 323 330 331 336 342 345 346 350 353 352 350 349 349 345 338
307 307 308 308 307 308 308 308 309 308 309 309 309 309 309 310 310 310 309 309 310 311 311 312 312 311 312 310 309 310 314 323 324 320 315 314 314 312 312 316 317 314 311 309 309 311 313 314 315 316 318 319 319 317 315 315 313 314 314 315 315 315 315 316 317 317 316 318 318 319 318 318 320 321 325 330 340 345 343 341 347 351 350 350 350 346 340 338
306 306 307 307 307 307 307 308 308 308 308 309 309 309 309 309 309 309 309 309 310 310 311 311 311 311 310 309 310 311 318 323 319 317 316 314 313 312 314 315 316 313 308 308 309 311 312 313 315 316 318 318 318 316 315 315 314 314 313 316 316 315 316 316 316 317 318 317 318 318 318 317 318 318 320 329 340 341 338 338 344 349 348 349 349 343 340 341
306 306 306 306 306 307 306 307 307 307 308 308 309 309 309 309 309 309 309 309 310 309 310 310 310 310 309 309 312 313 317 321 317 317 317 315 313 311 313 315 314 311 308 309 310 311 312 313 315 317 318 317 316 316 315 314 314 313 313 314 316 316 316 316 316 317 318 318 318 317 318 317 317 318 317 328 336 335 336 337 340 345 347 347 346 342 342 341
306 306 306 306 306 306 306 306 306 306 307 307 308 308 308 309 309 309 309 309 309 309 309 310 310 309 309 310 315 317 317 319 317 317 317 314 314 310 310 311 310 309 309 310 310 311 313 314 315 316 316 316 316 315 315 314 314 313 313 314 315 317 316 317 316 316 317 318 318 317 317 316 317 318 316 326 333 331 334 335 339 345 345 344 344 342 341 340
306 306 306 306 306 305 305 306 306 306 306 307 307 307 308 308 308 308 308 308 308 308 308 309 309 309 309 311 316 321 321 319 318 318 315 315 314 309 308 308 306 308 311 312 311 312 314 315 314 315 314 315 315 314 315 314 313 313 314 314 315 316 316 317 316 316 317 317 318 317 317 317 317 318 314 323 333 331 332 334 340 346 344 343 343 342 340 341
306 306 306 306 306 306 305 305 306 306 306 306 307 307 308 308 307 306 306 306 307 308 308 308 309 308 310 313 316 321 322 317 320 318 314 316 314 309 308 309 307 308 312 313 314 314 315 315 314 314 314 314 314 314 314 313 313 313 314 315 315 316 316 316 316 317 317 316 317 316 316 317 316 318 314 322 332 332 332 334 341 345 344 343 342 341 341 342
305 305 305 305 305 305 305 305 305 306 306 306 306 306 307 307 305 304 304 304 306 307 308 307 307 309 311 314 316 319 316 315 320 319 318 316 313 311 309 311 309 308 312 313 314 315 316 316 313 313 313 313 313 313 314 313 313 313 314 314 314 315 315 317 316 316 317 317 317 316 316 317 317 316 314 320 327 331 332 332 340 344 343 343 342 341 340 340
305 305 305 305 304 304 304 305 305 305 306 305 305 304 305 304 303 303 303 303 304 306 307 307 308 310 312 315 316 316 309 313 316 317 318 315 314 314 312 313 310 310 311 311 314 316 316 315 314 312 312 312 312 312 312 313 313 314 314 313 314 315 315 316 316 316 317 317 317 316 315 314 315 316 316 317 320 328 332 332 340 342 342 342 341 340 338 337
305 305 305 305 305 304 303 304 304 304 303 303 302 302 302 301 301 302 303 303 303 303 306 308 309 310 314 318 316 309 306 310 310 312 315 315 315 315 314 314 312 311 312 312 314 316 316 315 314 313 313 313 312 312 313 313 314 314 314 314 313 314 314 317 316 317 316 317 318 315 312 313 315 315 317 318 317 323 328 332 339 340 341 341 341 340 338 337
305 305 305 305 304 303 301 301 301 301 301 301 301 300 300 299 300 302 304 304 303 303 306 307 309 311 315 319 314 309 313 312 311 313 315 317 317 315 315 315 314 314 313 314 315 315 315 315 314 313 313 313 313 313 314 313 314 313 314 313 314 313 313 316 316 316 316 316 318 314 311 313 315 315 317 318 317 321 324 329 337 340 341 342 343 343 342 341
305 305 305 304 303 300 299 299 300 300 301 300 299 299 299 299 302 306 307 305 304 305 307 308 309 312 317 319 316 316 318 318 318 315 314 318 318 317 316 315 316 315 315 315 315 315 315 315 315 313 312 312 312 313 313 314 315 314 313 313 313 312 313 315 315 316 315 316 317 314 311 314 316 315 317 317 316 321 322 327 336 341 342 344 345 345 344 344
305 305 304 303 300 299 298 299 299 300 300 300 299 299 298 299 305 309 310 306 305 306 308 311 311 313 318 320 317 318 318 321 319 315 314 315 317 318 317 316 316 316 316 316 315 315 315 316 314 313 312 313 313 313 313 314 315 315 313 312 314 312 311 313 314 316 314 315 317 314 312 315 317 315 316 316 317 322 322 327 337 342 343 346 347 345 345 345
304 305 304 301 299 298 298 298 299 299 299 298 298 298 298 301 308 311 311 308 307 307 309 313 314 315 319 319 317 319 318 319 317 315 314 313 314 318 317 317 316 316 316 316 315 314 314 314 314 314 313 313 313 313 314 315 316 318 315 313 314 312 311 311 312 316 315 315 316 315 314 315 317 316 316 315 316 322 321 328 340 344 344 347 347 345 346 345
303 303 303 301 299 298 298 298 299 299 299 298 298 298 298 304 310 311 312 311 310 311 312 313 314 317 321 319 320 321 318 318 318 317 315 313 313 315 317 317 315 315 315 314 314 313 313 314 314 315 315 314 314 313 314 315 316 316 315 314 313 312 311 310 311 314 314 314 315 315 314 315 317 315 317 316 316 322 320 331 342 346 346 348 347 345 345 345
301 302 302 301 300 299 298 298 299 300 300 298 297 297 302 310 314 314 312 312 315 319 321 319 317 319 318 318 320 320 318 318 318 316 315 314 313 313 316 317 315 315 314 314 314 312 313 314 313 314 315 315 314 313 313 314 313 314 315 314 312 311 311 311 312 314 314 315 315 315 313 314 316 315 318 317 319 323 320 332 344 346 346 347 346 345 344 344
299 300 301 301 300 299 298 298 300 300 301 300 299 302 310 316 319 319 315 313 316 321 322 320 318 317 316 316 317 317 317 317 316 315 314 313 313 314 315 316 315 314 314 314 315 313 313 314 314 314 314 316 317 316 315 315 315 315 314 313 311 311 311 313 313 314 314 314 314 316 315 314 315 316 318 317 319 324 322 333 344 344 345 346 345 344 345 342
298 299 301 300 299 298 298 299 300 301 302 301 301 305 312 311 311 315 315 314 315 317 317 317 318 318 317 318 318 318 316 315 315 314 313 313 314 316 315 316 314 314 314 313 314 315 314 315 315 314 316 318 319 322 321 319 319 318 315 313 311 312 313 315 315 314 315 316 313 316 316 314 317 317 319 319 321 323 323 334 342 343 342 345 345 343 344 339
299 300 300 298 298 298 298 299 301 300 300 301 302 306 308 305 306 308 308 310 312 314 315 316 316 316 317 317 317 317 315 315 314 314 315 315 315 316 315 315 313 313 314 313 314 315 314 314 315 315 317 319 320 322 324 323 321 320 317 315 313 315 315 316 318 315 314 317 315 315 316 316 319 318 319 323 324 324 325 333 339 342 341 343 344 344 342 338
300 299 298 299 299 298 299 300 299 300 302 304 305 306 307 306 306 307 309 310 309 310 311 312 314 315 315 316 317 316 315 315 314 314 315 316 316 315 314 314 312 312 312 313 314 315 314 313 314 315 317 320 321 322 324 324 324 322 318 316 315 316 315 314 319 318 318 323 320 317 319 323 321 318 319 324 326 326 323 327 333 337 340 342 344 343 341 338
300 299 299 300 299 300 300 298 299 304 307 308 308 308 309 310 308 309 312 313 311 311 311 310 311 312 314 314 316 316 315 315 315 315 315 316 316 314 314 313 311 310 312 312 312 313 314 313 313 315 315 319 321 321 324 323 324 325 322 318 316 316 316 315 319 323 327 331 330 327 327 330 327 319 320 323 325 326 324 324 327 331 335 340 344 342 339 339
301 300 300 300 301 302 299 300 307 309 306 307 309 309 309 313 312 311 313 316 316 313 312 313 312 311 312 313 314 316 315 315 316 316 315 315 316 315 314 313 311 310 310 311 311 311 312 314 317 315 314 317 317 319 325 324 321 324 325 322 319 317 318 318 317 321 323 322 327 326 320 327 333 322 321 324 321 322 325 325 325 330 335 340 344 343 339 341
301 301 300 302 303 302 300 305 309 306 302 305 307 307 309 312 312 310 316 322 322 319 314 314 314 313 313 313 313 315 315 315 315 316 316 315 316 316 314 312 311 311 310 310 311 311 311 314 317 318 316 316 316 318 323 325 321 319 322 322 319 318 318 319 317 315 316 317 324 326 318 323 330 322 322 324 319 321 325 326 327 333 338 340 341 342 340 340
301 301 301 302 303 303 304 306 305 304 305 305 304 306 309 311 308 311 321 325 325 323 315 313 314 313 313 314 314 315 316 316 315 315 316 316 316 315 313 313 311 310 311 311 311 313 315 315 317 320 319 318 319 319 322 324 320 318 320 318 317 316 315 319 317 313 319 321 322 322 320 319 321 322 325 324 320 324 327 326 332 336 339 339 340 341 338 336
301 302 301 301 302 303 303 304 304 306 307 305 305 308 309 310 309 312 322 324 322 318 316 314 314 313 313 315 314 315 316 316 316 315 315 316 316 315 313 313 312 312 312 311 312 316 319 318 318 319 318 318 319 320 321 320 318 317 319 317 315 314 315 317 315 314 321 324 318 319 320 317 318 323 326 324 319 322 326 330 338 341 340 339 340 339 335 333
301 301 301 301 301 303 305 304 304 308 308 308 309 310 310 310 311 315 322 326 320 313 315 315 316 316 315 316 315 315 315 315 316 315 314 316 316 315 314 313 312 312 312 312 314 318 319 318 318 316 316 318 318 318 319 317 317 317 316 317 315 314 315 315 315 314 318 321 319 320 319 316 320 325 322 320 319 319 325 334 339 341 339 340 340 335 332 331
300 300 301 302 302 304 307 306 306 307 308 311 312 311 311 310 313 319 323 325 317 312 315 315 316 318 317 317 316 316 315 315 315 314 314 316 316 316 316 315 314 313 313 314 314 315 316 317 317 315 316 318 317 318 317 315 317 316 315 315 313 315 317 315 318 316 316 321 323 322 320 316 322 332 327 321 324 326 327 333 338 340 337 338 337 333 331 330
300 300 301 302 302 304 305 306 307 305 307 311 311 311 311 311 315 321 323 320 312 312 314 315 317 318 318 317 317 317 316 316 315 314 315 316 316 316 316 317 316 314 314 315 316 315 314 316 316 316 316 317 316 316 315 315 314 314 316 315 314 318 321 317 315 313 315 323 322 318 319 315 319 331 331 326 330 332 329 332 338 339 336 335 335 332 331 330
300 301 301 302 303 302 304 306 304 303 307 311 311 311 312 311 314 319 321 317 315 315 313 315 317 316 317 318 317 318 316 316 315 313 315 317 318 317 316 318 316 314 315 315 317 317 315 315 315 316 316 315 315 314 313 314 314 315 315 314 314 318 320 318 315 316 319 324 323 316 316 319 324 329 328 330 332 332 330 333 337 337 335 335 334 332 331 330
301 302 302 303 303 303 305 304 303 306 311 313 312 313 312 312 315 317 316 314 315 315 311 314 315 314 317 317 317 318 316 315 314 315 317 317 318 317 314 316 315 314 317 318 317 315 315 315 313 314 316 315 314 313 312 316 317 316 315 316 318 318 318 319 319 318 320 321 321 318 315 321 330 329 326 331 331 330 331 332 334 335 334 335 334 332 331 329
302 302 304 305 305 306 305 305 308 311 313 313 311 312 313 314 316 315 313 313 313 312 311 313 313 313 317 316 317 318 315 314 313 315 319 318 318 320 316 314 314 313 315 317 317 315 315 316 315 314 315 316 316 313 314 318 318 316 316 316 319 320 319 319 319 319 322 323 321 319 318 322 329 333 332 330 329 330 331 332 334 335 334 335 334 332 332 329
303 304 308 311 310 308 305 307 311 313 314 313 311 311 314 315 315 313 314 313 310 312 312 312 311 312 315 315 317 318 315 317 317 314 318 320 319 320 318 314 314 314 314 316 317 314 312 316 318 314 314 315 314 314 314 315 316 322 319 312 316 322 321 319 322 324 323 325 324 321 323 326 332 338 335 327 329 330 331 333 334 335 334 334 333 333 333 332
303 304 311 315 315 313 309 310 313 313 315 315 312 312 313 312 311 311 312 311 310 312 310 311 312 311 313 314 315 318 318 325 326 318 316 319 318 317 317 315 314 312 314 318 320 314 313 317 318 313 314 315 313 315 315 312 319 328 321 312 317 322 321 320 325 325 321 322 323 324 328 330 331 336 331 326 332 331 330 333 334 335 335 334 333 333 333 333
305 306 312 315 316 316 314 313 314 314 315 315 315 315 312 308 308 309 308 309 309 309 308 311 312 310 312 313 315 317 317 323 325 319 317 320 322 320 317 315 315 313 312 316 318 318 317 319 322 315 313 316 313 315 315 312 319 324 317 315 320 323 326 325 324 325 322 322 322 325 331 331 331 335 330 329 334 332 329 332 334 335 335 334 334 333 333 332
306 309 313 313 314 316 316 314 314 315 315 315 315 316 311 307 309 307 307 308 307 307 307 309 311 310 312 312 314 315 315 320 321 318 319 323 326 325 320 318 318 316 315 313 315 320 319 317 322 319 315 319 317 314 315 315 316 318 318 320 325 330 335 331 323 324 326 324 322 325 333 332 332 336 333 330 334 334 330 332 334 334 335 335 334 333 332 331
307 311 316 314 312 314 314 313 313 314 315 315 314 313 309 307 308 307 307 306 306 307 307 308 310 311 311 311 313 313 314 320 322 320 322 327 329 326 321 321 320 318 318 315 315 322 324 322 325 323 316 319 320 315 316 317 315 315 317 317 323 333 335 329 325 324 326 328 325 326 336 338 336 336 333 331 334 333 332 332 334 334 333 333 333 331 330 330
312 315 318 315 312 313 313 313 314 315 316 316 314 311 308 306 306 306 307 306 306 307 307 308 309 311 313 311 311 312 313 319 323 324 326 329 332 330 322 320 320 318 318 317 318 322 325 324 326 325 318 319 321 320 317 317 315 314 316 315 317 325 325 325 326 321 321 331 330 328 337 341 338 336 333 332 333 332 332 332 332 333 332 332 332 331 331 329
313 316 318 315 313 314 314 315 316 316 316 315 314 311 309 308 307 306 307 306 306 307 307 307 309 311 313 312 311 311 312 316 321 324 324 324 330 334 328 319 317 318 321 323 323 323 322 324 330 328 321 320 322 320 317 317 317 316 317 318 317 322 326 325 324 320 319 324 325 329 337 337 334 334 333 332 333 332 331 331 331 331 331 331 331 331 331 331
314 317 317 314 313 314 315 317 316 315 315 315 313 311 310 311 309 308 308 307 306 306 308 309 310 312 312 312 312 311 311 312 316 321 324 323 326 329 324 319 316 317 323 324 323 324 324 324 327 325 320 320 319 317 318 317 317 317 316 319 319 323 329 326 326 331 328 321 323 330 337 337 333 331 332 332 331 331 331 330 331 331 330 330 329 329 330 331
316 317 315 313 312 313 316 317 317 315 315 314 312 311 311 312 311 310 310 309 307 308 310 311 311 312 312 311 310 309 312 313 313 319 323 323 325 325 322 320 317 316 325 329 325 325 325 322 324 325 325 327 323 318 319 317 318 321 319 319 320 321 324 323 326 337 335 329 331 332 333 337 335 330 330 331 329 330 331 330 330 330 330 330 329 328 329 330
314 316 316 314 313 313 315 317 317 316 314 312 312 312 311 311 311 311 310 310 308 309 311 311 310 311 311 310 310 310 312 314 315 317 320 319 321 322 320 320 320 319 328 333 328 325 328 326 327 327 329 335 333 326 325 322 321 323 320 320 322 322 326 327 328 336 336 329 331 331 332 336 335 329 328 329 328 329 329 328 329 330 330 330 328 327 328 329
313 315 315 314 312 312 315 316 315 314 313 313 313 313 311 311 311 311 311 311 309 309 310 310 310 310 309 309 311 310 310 313 313 315 318 317 317 318 317 318 320 319 324 330 326 325 331 330 326 326 329 335 336 331 328 325 322 322 320 319 322 324 328 329 328 331 331 327 328 332 333 334 332 329 329 328 328 328 327 326 327 327 328 328 327 326 326 327
314 314 313 313 313 312 313 313 312 313 313 312 313 313 312 312 312 310 311 312 309 308 310 310 310 310 311 311 313 312 311 310 311 314 317 317 317 318 317 316 319 321 325 330 326 323 328 327 322 323 327 330 330 326 322 322 321 321 320 319 322 326 326 328 334 333 329 330 334 333 332 333 332 331 330 328 328 327 326 326 326 326 327 326 326 326 325 325
314 312 311 313 314 314 314 312 311 313 313 312 313 313 312 313 312 311 311 311 310 309 310 310 310 311 312 313 314 315 312 310 314 318 318 318 317 316 316 316 317 322 326 326 323 321 324 328 327 325 323 322 322 320 318 319 319 318 320 320 322 325 326 328 334 332 328 333 335 329 330 334 332 331 330 328 327 327 326 326 326 325 325 325 325 325 325 324
312 312 312 312 313 314 314 312 311 312 312 313 314 313 312 312 312 313 314 312 310 309 312 313 313 312 312 313 316 317 317 317 320 322 321 320 319 318 320 320 317 319 321 319 319 320 322 328 329 325 321 320 319 319 318 319 318 317 320 323 322 325 327 328 329 327 329 335 335 329 330 332 329 329 329 328 327 326 325 325 325 325 326 326 323 320 318 316
311 312 313 312 313 312 312 311 311 312 312 313 314 312 311 312 312 312 313 314 313 312 313 315 314 312 312 313 316 317 318 320 322 323 323 323 322 323 325 326 323 320 318 319 321 321 322 326 326 322 321 319 317 319 319 318 318 319 319 321 321 324 327 327 327 327 329 332 330 327 326 322 320 321 322 322 322 321 320 319 318 319 319 318 315 312 310 308
311 312 312 313 312 311 311 310 310 311 311 311 312 311 310 311 311 310 310 313 315 314 312 312 313 312 311 311 313 313 314 316 318 319 321 321 325 327 324 324 328 325 320 322 324 323 322 325 324 322 323 323 319 318 318 319 320 320 319 319 321 324 325 325 327 328 328 328 325 322 320 316 315 314 314 314 314 313 312 311 310 311 311 310 309 308 307 306
308 309 310 312 313 312 310 310 309 310 311 311 311 311 310 310 310 310 310 310 312 311 309 309 313 314 312 310 311 311 310 312 313 315 314 314 319 324 322 322 325 324 324 325 325 326 326 326 324 323 325 325 321 319 320 321 321 323 325 323 322 325 324 323 325 327 326 325 322 319 317 315 313 311 310 309 309 309 308 308 308 308 307 306 306 305 305 304
306 308 308 311 315 313 308 308 308 310 311 311 310 310 310 310 309 310 312 310 308 309 308 308 311 314 313 311 310 308 308 309 311 311 311 311 312 314 317 319 319 322 327 327 325 327 328 328 327 326 325 323 320 319 321 322 323 324 325 323 322 322 322 322 324 324 323 323 322 318 316 314 311 310 309 308 307 307 306 306 306 306 305 305 304 304 304 303
Wind_Speed
12 12 12 12 12 12 12 13 12 12 12 12 11 11 11 11 11 11 12 12 13 13 13 14 14 14 15 15 16 17 19 21 20 15 14 15 13 9 6 5 5 5 6 8 9 7 6 8 9 12 10 7 5 4 7 7 4 4 3 5 5 6 7 9 9 6 4 3 4 5 6 6 3 2 1 4 14 15 11 9 7 8 9 13 22 30 29 25
12 12 12 12 12 12 12 12 12 13 12 12 12 12 12 12 12 12 12 12 13 13 13 14 14 14 15 15 16 16 19 21 19 19 22 18 15 16 12 10 11 9 6 9 12 11 7 7 8 9 6 4 4 4 5 4 5 4 3 5 5 7 10 10 10 10 8 4 5 5 4 4 4 4 2 2 10 13 11 8 11 14 13 16 22 27 26 24
12 12 12 12 13 12 13 13 13 13 13 13 13 12 12 12 12 12 12 12 13 13 13 14 14 14 15 15 15 15 18 18 13 14 14 10 15 22 18 15 16 13 10 11 14 14 11 9 11 8 5 5 5 5 6 4 4 5 4 4 6 9 11 12 12 13 11 4 3 3 2 2 3 1 2 3 7 10 9 6 11 14 13 15 16 20 24 26
12 12 12 12 13 12 13 13 13 14 14 14 13 13 13 13 12 12 12 12 12 13 13 13 14 14 14 15 13 14 15 11 6 8 5 2 6 15 20 20 18 14 12 13 14 16 15 12 13 9 7 5 5 6 6 6 4 4 5 6 9 8 11 14 13 13 11 4 1 2 2 3 2 1 3 5 5 5 6 6 11 14 15 16 15 16 20 22
12 13 13 13 13 13 13 13 14 14 15 14 14 14 13 13 13 13 12 12 12 12 13 13 13 14 14 14 13 12 9 3 0 2 2 2 3 8 18 20 18 14 12 13 13 14 15 12 10 9 7 5 6 6 6 8 6 5 6 9 12 10 12 14 11 11 9 6 5 4 4 4 3 4 2 6 3 3 5 7 12 14 16 17 16 16 18 16
13 13 13 14 14 14 14 14 14 14 14 15 14 15 14 14 13 13 12 12 12 11 11 12 12 13 13 15 11 6 3 1 5 3 3 4 4 6 13 18 17 13 11 12 11 11 10 9 9 8 5 5 7 6 7 9 8 6 6 9 12 12 13 14 11 9 6 5 7 7 5 5 4 5 4 5 6 6 8 9 13 13 14 18 17 17 15 13
13 13 13 14 14 15 15 15 15 14 15 14 14 15 14 14 14 13 12 12 12 11 11 11 12 12 13 15 7 1 1 6 13 8 4 4 5 6 10 14 15 12 11 12 10 9 7 9 10 7 5 6 7 8 9 9 9 9 8 9 11 11 12 12 12 11 4 2 3 4 8 7 1 4 5 4 9 11 11 9 12 13 15 18 17 15 13 11
14 14 14 14 14 15 15 15 15 15 15 15 15 15 15 14 14 14 13 12 12 11 10 11 11 9 12 13 5 1 4 11 15 8 9 7 6 8 10 12 13 13 13 13 12 9 8 9 9 6 5 6 6 8 9 9 9 9 10 10 10 9 11 11 12 9 3 4 2 1 7 8 3 3 6 3 9 12 14 10 13 15 15 17 17 14 12 11
14 14 14 14 15 15 15 15 15 16 16 16 16 15 16 15 15 15 14 13 12 11 10 9 9 8 8 7 3 3 6 10 10 10 12 9 8 9 10 11 14 15 13 14 14 12 8 7 8 7 6 6 7 8 9 8 6 7 9 10 10 10 11 11 12 9 4 4 6 5 6 8 4 4 6 3 9 12 16 14 15 17 14 15 16 14 14 13
15 15 15 15 15 15 15 16 16 16 16 16 16 16 16 15 15 15 15 14 12 11 10 8 7 7 6 4 2 3 7 5 8 11 10 9 10 11 11 10 14 16 11 12 14 13 9 8 8 7 6 7 7 7 8 7 6 8 10 10 12 12 11 12 13 10 6 1 5 4 4 6 4 2 4 4 11 14 16 16 17 17 14 14 14 13 13 13
15 15 15 15 15 16 16 16 16 16 16 16 17 17 16 16 16 16 16 16 13 12 10 7 6 6 5 4 2 4 9 5 6 7 8 11 12 12 13 12 14 16 13 10 13 17 15 15 11 5 5 5 6 8 8 8 8 10 11 10 11 12 11 12 12 9 6 1 2 2 4 5 4 4 6 5 9 13 15 17 18 15 12 14 13 11 10 10
16 16 16 16 16 16 16 16 16 17 17 17 18 18 17 16 17 17 17 17 14 11 8 6 5 4 5 4 6 15 17 11 10 9 10 13 11 11 11 13 16 17 16 11 13 21 21 20 13 6 4 3 5 6 6 9 10 9 10 10 10 10 10 10 9 8 5 3 4 4 5 6 4 6 8 9 8 10 13 15 17 13 12 13 11 10 8 9
16 16 16 16 16 17 17 17 17 18 18 19 19 19 18 17 18 18 18 16 14 10 6 5 3 2 4 3 11 23 24 21 20 20 14 13 9 11 10 13 17 16 18 16 17 21 21 19 12 6 5 4 3 4 7 9 7 6 7 6 6 7 7 7 6 7 5 5 6 6 4 7 6 9 9 9 9 9 12 14 15 12 11 11 9 8 8 10
16 16 16 17 17 17 18 18 18 19 19 20 20 20 19 18 18 18 18 15 12 7 3 2 2 1 2 6 18 25 22 21 23 25 19 14 12 14 15 15 18 20 21 21 21 20 18 15 8 4 5 5 4 6 9 8 4 4 6 4 4 4 5 5 5 7 6 6 8 7 4 7 7 10 10 9 10 9 10 13 16 13 12 10 9 9 9 9
17 17 17 17 17 18 19 19 19 20 20 20 20 20 19 19 18 17 16 13 9 5 2 3 3 3 3 9 18 20 13 15 21 24 18 15 15 14 16 17 18 20 20 18 18 17 16 12 5 4 4 5 5 6 6 5 4 4 5 4 4 4 4 6 6 8 8 6 8 7 4 6 6 9 10 10 9 9 9 10 16 15 13 11 9 10 9 8
17 17 17 17 18 18 19 19 20 20 21 21 21 20 20 18 16 15 13 10 7 3 3 3 7 7 3 6 10 14 10 10 15 18 14 15 16 13 16 18 16 15 15 15 15 12 13 9 3 3 3 4 4 4 5 4 4 3 4 4 4 4 4 5 7 10 11 7 8 9 6 3 6 10 10 12 8 12 10 10 17 15 13 12 9 10 9 9
17 17 18 18 18 19 19 20 20 21 22 23 23 21 20 16 14 14 11 6 3 3 6 4 5 6 5 9 10 11 9 12 14 16 16 16 17 17 16 13 10 11 11 13 12 8 7 5 2 3 2 4 3 3 4 4 5 4 4 5 5 6 5 5 6 9 12 10 9 11 8 4 7 10 10 11 10 12 12 12 18 15 12 12 9 10 9 9
18 18 18 19 19 19 19 20 21 22 23 23 23 23 20 15 12 10 5 1 2 2 6 7 5 2 5 9 8 7 10 14 18 18 18 18 18 20 17 10 8 8 7 7 8 6 4 2 3 3 3 4 4 4 5 5 5 6 6 5 5 7 8 8 7 8 11 12 12 10 9 9 9 10 10 8 6 9 11 13 17 16 14 13 11 11 10 10
19 19 19 20 20 19 20 20 21 22 23 24 24 21 15 10 6 4 2 2 3 1 4 5 5 3 4 6 9 12 10 11 19 16 16 18 17 18 18 11 7 6 5 3 4 6 4 2 3 4 4 5 6 7 7 7 8 11 10 5 6 6 7 11 11 11 9 12 14 10 10 13 12 10 12 8 4 4 9 13 14 14 13 12 11 10 11 12
20 20 21 21 20 21 20 20 22 22 22 23 23 17 8 4 3 0 3 5 6 7 8 7 10 8 9 9 12 16 7 9 13 11 15 18 15 13 12 8 5 4 4 4 5 5 5 4 5 6 6 7 8 10 11 11 10 11 10 7 8 6 6 10 12 14 10 10 14 12 11 14 13 10 13 10 7 5 9 14 14 14 12 11 11 10 11 11
21 22 21 22 22 22 20 21 22 22 21 21 18 9 2 3 3 2 3 6 11 13 14 13 12 13 15 14 17 18 8 4 6 7 15 19 14 9 6 6 5 4 5 6 6 4 5 6 7 8 8 10 10 10 11 12 11 10 8 7 8 6 7 10 13 15 9 8 10 11 10 11 11 11 12 9 6 5 7 13 14 15 13 11 12 12 12 11
22 22 22 23 22 22 21 21 22 23 22 18 10 2 6 9 10 11 9 7 10 12 15 17 16 17 18 20 24 20 11 6 7 7 12 18 12 6 5 6 5 4 6 6 4 3 5 6 8 10 9 10 11 10 10 11 11 9 6 5 6 6 7 10 15 15 8 7 8 11 9 8 10 12 11 8 9 8 8 14 17 17 15 13 14 14 14 13
22 22 23 22 22 23 21 22 24 24 20 13 7 7 9 13 13 17 12 5 11 12 12 16 17 16 16 18 23 19 12 9 8 8 13 16 8 6 6 6 7 6 6 7 6 4 4 8 11 11 10 10 10 11 9 6 7 7 5 5 6 7 5 6 11 10 2 5 7 9 5 4 7 8 8 6 8 9 9 13 16 17 16 16 16 15 15 15
22 23 23 22 23 22 21 24 23 16 14 11 13 15 16 17 17 17 8 1 9 11 11 17 15 14 16 17 16 14 10 8 7 8 15 15 7 7 6 6 8 7 6 9 10 7 8 10 11 11 12 11 10 11 7 3 3 4 5 6 5 9 7 5 9 9 5 3 6 7 3 5 3 3 5 5 4 7 7 9 11 12 14 15 15 14 15 16
22 22 22 22 23 22 23 22 14 11 16 11 15 20 20 17 18 12 5 1 6 7 9 13 10 12 19 19 15 11 8 8 8 6 12 17 11 6 6 6 6 7 9 11 11 9 12 11 9 12 14 13 11 11 6 5 2 4 4 6 8 11 10 9 11 8 6 4 2 6 4 5 5 2 6 6 4 7 6 8 8 9 13 14 13 13 13 12
22 21 21 21 22 25 22 11 9 17 19 10 12 22 18 10 11 9 4 1 4 5 6 6 7 9 14 13 11 10 8 8 9 10 10 18 16 8 5 5 3 7 9 10 7 4 8 11 9 12 13 14 13 9 5 6 2 3 4 6 9 11 8 8 10 6 0 3 2 5 5 3 5 5 7 5 6 6 6 8 8 12 13 12 11 11 10 8
22 20 21 21 21 22 14 7 16 19 10 10 16 22 19 14 14 10 3 1 4 5 5 2 3 6 7 10 12 9 6 4 9 12 11 17 17 8 6 5 3 7 7 6 5 4 8 12 10 8 9 9 7 5 5 6 4 4 4 7 12 11 8 7 6 6 3 3 1 3 6 2 3 6 8 7 5 3 7 8 9 13 13 12 11 10 9 12
21 20 21 22 21 18 12 14 18 12 7 13 15 17 19 17 13 7 3 1 4 2 2 0 1 4 4 9 13 9 6 3 6 9 10 20 18 6 6 9 6 8 8 5 5 5 8 11 9 7 5 3 3 4 5 6 5 5 6 9 12 11 10 6 5 6 3 4 2 3 5 3 3 6 7 6 5 4 7 9 13 14 14 13 11 10 13 15
22 21 22 24 23 16 9 13 13 9 12 15 12 16 19 15 9 3 2 1 3 2 1 1 1 3 2 6 10 7 7 4 3 6 10 18 17 7 4 9 10 10 9 7 7 5 5 8 10 8 5 2 3 4 5 6 6 6 8 9 9 9 10 7 5 5 1 3 3 5 3 3 3 6 5 4 5 7 6 9 14 15 14 13 12 14 15 13
23 23 23 23 21 12 7 11 16 11 18 16 13 15 14 9 4 3 1 2 3 2 2 2 1 4 5 5 6 6 8 7 5 6 8 10 12 7 2 5 8 8 8 8 8 8 7 5 6 7 6 5 4 4 6 9 8 6 7 7 7 7 7 6 5 3 3 1 5 6 3 3 2 5 4 4 6 8 8 9 13 14 14 13 13 15 14 11
25 25 24 20 18 12 7 9 11 10 15 14 13 11 7 3 2 2 3 2 3 4 2 1 3 7 8 7 6 6 8 9 6 6 7 7 7 6 2 3 4 4 5 5 6 9 11 6 1 2 3 4 5 5 7 10 10 7 5 4 4 5 4 3 1 3 2 4 5 6 4 4 3 5 4 3 4 3 10 12 13 14 14 13 14 14 11 10
26 25 24 21 18 15 12 10 9 8 10 12 11 6 2 1 1 3 3 2 3 4 2 3 6 8 9 9 7 7 8 7 7 7 7 6 5 5 5 4 3 2 4 5 3 6 8 5 3 3 2 1 4 5 6 7 7 6 5 3 2 2 3 3 1 3 4 4 5 6 5 4 4 4 3 6 9 6 9 14 15 14 15 15 16 15 11 9
26 25 24 20 16 17 17 13 9 6 9 11 7 2 2 1 2 4 4 4 4 3 4 3 4 4 6 7 6 7 8 7 8 6 7 7 6 6 7 8 6 4 3 4 3 3 4 5 4 5 3 3 5 4 4 5 2 5 5 4 3 1 0 2 3 2 3 4 6 7 6 5 2 2 4 7 8 7 10 14 14 15 16 16 17 15 12 11
26 24 19 13 13 15 13 9 3 3 9 8 3 1 1 2 3 5 6 6 7 10 10 9 7 3 5 6 5 6 6 7 8 7 6 6 5 5 7 10 11 6 3 3 3 2 3 5 5 5 4 6 7 5 5 4 1 4 4 4 4 4 4 3 2 3 3 4 3 2 3 3 2 1 4 6 10 9 11 11 12 15 15 16 16 14 12 11
24 18 13 10 11 10 7 4 2 1 5 3 2 1 3 3 3 3 5 6 8 10 11 12 11 6 5 4 6 7 6 6 6 6 6 6 5 5 5 7 11 9 3 2 3 3 3 5 7 9 8 8 8 7 5 3 2 2 2 2 4 4 5 3 2 4 4 0 2 1 2 2 3 3 5 6 11 11 12 11 13 15 14 14 13 12 11 9
22 14 9 10 11 6 4 5 4 3 3 1 1 2 4 4 4 3 3 6 7 8 10 11 9 5 4 3 5 7 6 3 3 4 4 6 7 7 6 6 9 10 6 3 3 2 3 4 3 7 10 9 9 8 6 3 2 2 1 3 6 5 7 3 1 2 3 3 3 1 2 2 2 1 4 8 13 11 12 12 11 12 13 13 11 10 9 8
20 12 7 12 13 9 7 7 8 7 3 0 1 3 3 4 6 6 7 10 11 10 10 7 5 5 3 2 3 5 5 5 3 4 2 1 4 5 4 5 7 10 11 7 4 2 3 5 5 2 6 6 5 8 8 6 6 3 1 4 3 1 3 3 1 2 3 2 3 2 5 1 2 1 2 9 12 9 12 12 11 11 11 11 9 9 9 9
14 9 9 11 8 10 11 11 12 9 2 1 3 4 4 5 7 9 9 11 13 11 9 5 6 6 3 1 3 4 5 4 4 5 1 2 2 2 3 3 3 3 6 7 6 3 1 3 6 2 1 3 2 4 7 6 5 5 5 4 2 2 1 1 2 2 1 2 3 1 3 2 2 2 1 7 9 8 11 11 11 11 10 9 8 8 10 10
6 4 5 2 6 9 8 9 9 5 1 2 3 3 4 6 9 12 12 13 11 9 8 8 7 5 3 4 5 4 4 3 4 4 3 1 2 1 4 4 6 6 7 4 4 3 3 2 4 5 2 2 4 1 4 5 4 5 3 1 3 3 3 1 2 3 3 2 2 1 2 2 2 4 2 5 8 9 10 10 9 9 9 9 7 7 8 8
3 2 2 4 6 4 4 5 4 1 2 3 3 4 6 7 9 11 13 12 9 6 6 8 9 5 4 6 7 6 4 2 5 4 2 2 1 2 3 3 5 6 8 6 3 1 1 4 3 5 5 3 1 3 2 1 2 4 4 2 2 1 2 2 1 2 4 3 2 1 1 3 4 3 2 5 6 7 10 11 8 8 10 10 6 6 6 7
3 2 1 3 3 4 4 4 2 2 3 4 5 7 8 8 9 11 13 12 9 6 7 9 9 5 3 5 7 7 5 1 4 5 2 2 1 1 2 3 4 5 5 5 5 2 1 2 4 2 2 1 2 4 4 6 5 2 2 3 3 2 3 3 1 3 3 3 2 4 2 3 4 2 4 5 4 5 9 11 9 8 9 9 6 5 5 6
3 1 3 5 3 4 5 2 2 3 3 3 5 7 9 9 9 10 12 11 9 7 6 6 6 5 3 3 4 6 5 4 1 2 2 3 4 3 3 3 5 5 3 2 4 3 1 2 3 2 2 3 2 6 6 8 9 6 4 4 3 2 3 4 2 3 1 2 1 2 3 2 4 3 3 6 5 5 7 9 9 8 7 6 5 4 4 4
2 2 3 5 4 4 3 1 3 2 2 4 7 9 10 9 9 11 11 11 9 5 2 3 4 5 4 4 6 6 4 5 3 1 4 4 4 5 4 0 5 4 3 2 4 4 3 1 2 1 2 2 4 7 6 8 10 6 5 7 7 6 4 2 4 3 2 0 1 3 1 3 3 5 3 6 6 6 6 8 9 8 5 6 5 3 4 5
2 3 2 5 7 6 2 0 3 4 4 6 8 9 9 8 8 9 10 10 8 5 3 4 5 5 5 7 10 9 4 2 3 2 4 3 3 5 6 3 2 3 2 1 1 3 3 1 2 3 3 4 5 5 4 7 6 3 4 7 9 10 9 4 2 4 2 2 4 5 1 3 0 5 5 7 8 7 7 8 9 8 6 6 5 5 6 6
3 2 1 3 5 2 2 2 1 4 5 6 8 9 8 8 7 8 11 12 9 6 5 4 6 8 6 7 11 11 6 3 2 3 2 1 2 3 6 6 5 2 2 3 3 2 0 2 0 3 3 1 1 2 2 2 2 2 4 9 12 12 10 4 2 4 2 1 4 5 3 2 2 4 6 8 10 9 9 10 10 8 7 6 6 6 6 7
2 1 2 1 2 4 4 3 3 3 3 5 6 6 8 7 6 7 9 9 7 6 5 4 5 7 6 6 8 8 7 7 6 1 1 0 1 1 1 5 7 4 5 5 2 2 2 3 2 2 3 4 4 4 4 3 3 3 6 10 12 11 9 6 4 1 1 3 2 2 7 8 5 4 5 7 10 11 9 10 10 9 8 8 8 8 7 8
1 1 2 1 2 4 3 4 4 2 2 3 2 5 8 8 7 7 7 7 8 6 4 3 5 6 6 6 5 5 7 8 6 5 5 5 2 2 5 6 6 8 9 6 4 2 2 1 3 2 2 3 6 5 3 4 4 4 5 9 11 11 11 9 5 3 4 3 3 0 8 10 5 3 5 6 9 10 9 9 9 9 9 8 8 9 8 8
1 0 1 1 1 2 2 3 4 2 3 2 0 4 7 8 7 6 6 9 12 8 3 3 7 11 11 7 5 5 7 7 7 7 6 7 5 4 5 5 5 10 10 5 4 4 1 0 3 5 3 2 5 7 6 4 2 3 5 8 10 11 11 8 3 6 4 5 5 4 9 9 4 4 6 6 9 10 9 9 8 8 8 8 9 11 11 12
2 1 3 2 1 2 3 0 2 4 4 4 2 3 7 8 7 5 3 5 8 9 7 4 7 11 12 8 7 5 6 6 5 5 4 5 6 4 4 5 3 8 10 6 5 5 2 1 4 4 1 3 4 6 7 5 3 3 3 5 9 10 9 7 5 7 8 9 8 11 15 11 6 6 7 8 9 9 9 10 10 10 11 12 13 13 12 13
3 1 2 3 2 2 5 2 3 4 4 5 3 3 6 7 7 5 3 1 2 5 7 7 7 7 9 10 8 6 6 5 4 5 4 4 4 1 1 2 2 4 7 5 3 5 3 2 5 6 3 3 3 6 7 6 6 4 3 3 8 10 8 6 4 6 8 9 7 10 14 9 5 5 8 9 9 11 12 12 12 11 11 13 13 12 12 13
7 7 5 3 3 3 3 3 4 4 3 4 3 3 5 7 9 7 4 5 7 7 8 11 9 5 6 9 9 7 9 8 6 7 6 4 3 4 2 1 2 2 5 3 2 3 2 1 4 5 4 4 4 4 6 8 8 6 7 6 5 6 6 4 3 3 5 7 6 7 8 5 2 4 10 11 10 13 13 11 11 10 10 13 13 11 12 13
11 10 9 3 2 4 0 4 5 4 1 2 3 4 4 7 10 8 4 6 10 9 9 10 9 5 4 7 9 9 10 10 8 7 6 5 6 7 3 4 6 5 4 3 2 2 2 2 2 3 2 4 9 6 4 7 7 5 5 7 5 2 7 7 6 5 5 6 5 3 4 4 1 5 11 11 10 12 10 8 9 9 10 12 11 10 11 11
Wind_Direction
349 347 347 346 344 343 342 340 339 337 333 327 321 317 315 314 310 308 307 305 307 307 308 311 311 313 313 316 318 319 321 315 310 295 260 259 266 247 224 226 265 265 225 232 228 225 216 199 220 233 236 245 233 239 252 257 243 212 200 222 246 251 253 255 256 275 303 355 9 352 23 35 31 76 28 93 97 94 86 73 64 54 68 98 117 127 132 132
349 348 348 346 345 343 341 341 339 337 334 332 329 325 322 317 312 308 305 305 305 306 309 311 312 315 316 319 320 321 322 312 297 277 264 264 258 246 244 247 247 243 215 207 213 216 208 189 209 223 226 239 231 229 229 238 242 223 208 217 230 242 250 260 274 292 303 344 2 359 47 16 5 71 16 66 106 104 98 91 84 77 81 97 111 121 123 112
349 349 348 345 345 343 342 341 339 337 334 335 333 329 327 319 315 308 305 305 304 307 308 310 314 315 318 318 321 329 322 310 292 266 277 279 246 240 238 241 237 231 230 219 207 210 218 200 198 211 220 234 238 227 216 215 235 227 213 231 239 239 255 264 269 278 279 287 12 11 72 34 356 88 148 57 75 96 108 116 104 101 108 108 112 117 107 94
351 349 348 346 345 343 343 341 339 338 335 336 333 332 329 323 319 311 306 304 303 306 307 312 315 315 319 319 325 334 320 307 279 245 279 342 224 222 219 228 233 231 236 229 212 215 229 216 199 207 218 226 235 235 232 216 211 222 207 229 250 250 262 260 259 278 291 306 86 118 61 37 337 258 120 82 52 90 119 135 123 122 125 119 118 112 97 92
352 351 349 346 346 344 343 342 340 338 336 335 333 331 328 326 322 315 309 303 303 304 306 310 310 315 319 322 331 334 326 325 309 193 123 98 153 185 206 219 226 231 234 223 217 229 245 244 216 207 218 228 229 233 240 226 212 236 229 226 242 252 266 270 279 300 317 356 23 37 47 25 338 326 97 125 139 167 153 141 129 129 129 126 122 106 95 104
351 351 350 347 346 345 344 342 340 338 336 333 332 330 327 327 322 318 311 304 303 300 305 307 310 321 322 327 333 324 326 289 311 325 127 121 113 151 195 212 220 227 224 210 218 239 251 257 239 215 213 225 230 235 241 231 216 236 253 236 236 238 251 272 283 288 318 17 20 359 339 350 353 315 304 132 131 142 148 133 126 130 123 118 113 106 111 126
351 350 349 347 346 344 343 341 339 337 334 332 330 327 325 324 321 319 313 307 306 301 306 308 316 328 330 339 341 241 217 259 287 289 203 154 127 155 184 204 214 210 199 198 211 232 240 246 240 224 216 220 231 241 250 249 230 233 248 248 247 241 247 262 265 265 284 48 45 343 317 329 308 259 315 105 130 125 132 123 117 122 109 108 108 115 131 129
350 349 347 346 344 342 342 339 337 335 333 331 328 325 323 322 320 319 316 311 307 304 306 309 321 335 339 348 355 234 241 256 274 252 188 171 149 156 172 189 201 194 190 199 207 219 235 244 234 224 229 226 230 237 248 260 249 239 239 245 251 253 260 264 267 265 207 139 126 239 284 294 262 272 336 109 139 120 128 127 114 113 102 110 119 126 131 119
348 347 345 344 342 340 339 337 336 333 331 329 326 325 322 320 320 320 318 314 309 307 305 308 318 335 348 345 329 299 260 247 245 203 179 180 170 165 170 179 190 185 192 210 218 231 239 244 232 221 235 245 246 245 245 253 252 247 242 243 244 248 260 264 272 272 224 167 157 176 240 274 294 331 330 141 141 123 132 137 122 115 110 122 132 137 132 132
347 346 344 342 340 338 336 335 333 331 329 327 324 322 320 320 320 320 319 316 312 308 306 313 320 336 348 303 263 281 259 221 181 182 181 185 177 173 174 179 187 182 194 217 221 239 244 242 239 219 237 259 262 260 254 249 250 260 259 249 242 242 250 255 263 268 259 190 138 168 217 257 280 289 284 180 151 143 141 141 132 123 127 138 139 142 137 145
346 345 343 341 339 336 334 333 330 328 326 324 323 321 319 318 318 319 319 316 312 308 307 319 333 345 329 288 258 240 248 225 176 185 187 189 186 184 180 182 190 185 198 223 224 234 242 248 254 234 225 243 259 266 267 266 269 276 282 276 257 250 252 250 258 269 265 229 122 236 252 253 258 225 245 224 166 155 151 145 137 130 134 142 140 141 141 150
345 343 342 340 338 336 333 331 328 326 324 323 322 321 320 319 318 317 315 315 310 305 307 314 332 349 312 279 231 241 255 261 259 254 200 180 191 203 193 189 194 193 200 222 237 235 239 246 255 260 240 229 249 260 273 274 274 278 282 286 282 274 263 248 255 265 237 180 171 205 254 262 243 232 238 235 202 162 158 148 134 130 135 142 144 140 145 152
344 342 340 339 337 334 333 330 328 326 324 324 322 322 324 322 318 316 312 312 309 302 303 301 296 312 304 257 244 257 272 278 279 281 241 186 185 211 213 209 204 202 207 219 239 245 248 249 254 279 284 278 260 283 303 286 271 275 276 273 284 292 274 240 241 259 225 179 185 176 224 257 236 236 238 236 223 171 159 150 134 132 137 140 141 140 147 149
342 340 338 336 334 334 334 331 329 327 325 324 322 322 324 324 318 313 311 311 309 301 289 296 294 290 256 250 271 279 283 275 272 279 256 196 187 209 216 224 217 212 215 224 242 260 271 269 267 284 290 287 285 308 310 302 291 279 278 276 261 267 281 256 232 249 240 191 186 169 200 243 233 235 234 236 229 182 161 147 136 136 138 141 142 142 144 146
341 338 336 334 333 333 333 331 329 326 325 323 322 322 322 321 313 309 314 313 304 281 251 296 245 217 286 266 280 296 294 267 253 258 249 200 198 211 211 222 227 222 221 232 249 266 284 292 278 246 266 283 292 301 298 297 299 264 251 274 257 229 260 271 246 240 240 201 187 183 210 233 232 242 232 236 227 166 160 146 136 139 139 142 144 140 140 145
339 337 334 333 332 332 331 330 329 326 325 323 321 321 320 318 309 307 315 303 287 234 181 287 220 199 285 272 286 307 286 247 233 237 239 210 210 219 211 214 226 230 231 243 254 266 284 297 285 246 250 256 262 268 282 297 294 268 231 236 250 242 242 253 244 240 239 214 193 202 218 221 228 248 238 234 216 147 153 147 137 142 142 141 143 142 144 147
338 336 333 332 330 330 329 328 328 326 324 322 321 319 317 313 298 299 310 290 267 182 193 262 243 200 249 272 300 306 250 221 214 222 229 215 219 229 218 205 208 221 230 242 248 251 263 266 245 268 252 236 239 223 248 267 263 274 247 223 238 241 234 241 237 234 231 215 204 203 208 220 227 245 243 231 212 163 160 146 142 147 141 144 144 142 146 144
337 334 331 330 328 328 328 326 326 324 323 321 321 320 315 307 287 284 306 321 108 171 244 273 290 240 245 262 268 253 239 222 204 209 219 210 219 234 231 215 190 199 217 235 239 223 222 229 204 238 240 229 236 213 211 222 225 245 239 217 229 231 232 245 245 238 221 205 209 200 196 226 237 249 257 242 216 184 169 139 141 148 142 150 148 143 149 140
335 332 330 328 327 328 327 326 325 324 324 321 322 324 315 304 292 263 223 180 130 162 258 232 199 201 263 256 239 252 265 208 191 199 209 200 208 231 241 234 187 180 204 198 216 203 183 225 220 223 235 222 220 220 226 232 228 241 248 232 225 229 233 239 241 244 226 194 203 193 184 214 227 242 257 261 285 235 175 136 136 146 143 150 148 144 147 135
334 330 328 327 327 328 327 327 325 324 326 326 331 338 326 320 355 84 205 212 207 227 250 221 191 216 263 275 273 276 272 161 175 199 196 189 197 218 239 236 179 184 214 185 204 203 169 201 225 219 223 224 225 224 233 247 248 252 265 269 258 255 249 245 242 240 224 185 200 192 178 205 213 227 246 257 284 261 157 135 138 148 144 145 145 143 139 128
332 329 328 328 329 328 327 326 323 323 325 324 330 340 298 294 288 276 288 237 221 222 242 242 216 225 244 255 271 277 278 171 185 213 190 181 189 202 213 209 190 203 218 214 220 202 176 203 227 224 223 228 233 227 226 241 255 261 269 278 282 279 269 269 262 245 215 167 194 185 171 201 206 216 236 234 232 229 139 131 143 149 147 147 145 143 139 124
332 331 329 330 330 328 327 325 320 321 318 309 307 264 250 277 273 280 296 281 256 232 235 244 236 240 242 247 260 264 276 248 210 224 184 168 178 194 181 184 199 219 207 218 242 200 198 227 228 224 227 230 236 238 229 234 247 257 267 279 283 279 288 292 279 259 214 156 185 182 178 206 205 211 225 201 179 189 164 149 153 156 154 153 150 148 143 130
333 332 331 332 330 327 326 323 317 316 310 289 243 215 262 297 302 295 292 290 291 268 240 239 234 240 239 245 255 251 257 248 213 218 181 165 182 193 186 187 198 225 204 201 223 194 205 232 221 221 231 232 239 243 231 230 250 247 244 257 269 270 288 299 290 287 213 131 146 164 177 233 215 212 227 213 179 186 182 156 152 161 160 154 152 149 143 141
332 332 333 332 329 327 328 323 317 319 320 288 251 257 282 297 297 299 306 286 287 281 249 237 230 235 230 226 235 233 243 242 217 206 174 169 190 184 197 209 195 224 222 202 211 211 232 233 211 214 230 231 242 248 223 163 275 265 235 236 261 272 282 299 308 332 4 44 87 104 55 318 267 213 246 264 205 189 182 150 147 155 150 142 139 140 145 153
332 332 332 333 330 327 328 324 317 334 333 292 264 293 306 294 287 305 356 318 269 280 254 232 218 234 227 214 211 208 222 230 223 222 173 171 186 177 199 218 199 220 222 214 213 217 240 239 207 207 223 226 235 245 211 159 242 298 257 240 251 265 281 300 305 335 7 338 14 85 71 302 302 282 260 274 223 199 173 155 148 123 125 130 129 138 153 154
331 330 332 333 330 330 333 326 310 328 326 289 289 323 336 334 325 344 22 299 272 270 248 198 172 213 215 198 193 192 214 225 210 223 196 175 185 190 198 213 208 217 219 220 217 211 237 243 223 204 210 219 223 231 196 152 186 274 264 262 264 263 269 281 295 316 321 237 252 102 117 255 309 306 269 258 230 208 159 155 133 109 118 124 127 142 150 122
329 328 332 330 329 336 338 307 312 324 318 297 316 334 348 1 357 360 41 1 280 239 213 169 154 185 185 176 173 177 213 204 180 216 211 176 183 196 204 215 210 216 225 222 220 212 217 233 242 222 210 210 204 209 186 150 170 233 242 263 273 273 259 243 267 285 240 175 201 122 126 157 296 283 269 262 253 207 155 153 118 115 121 118 130 138 114 91
328 328 331 327 327 326 300 286 307 313 294 306 321 335 342 347 349 2 70 61 297 256 167 243 182 162 175 174 165 175 219 179 157 211 194 172 181 184 200 228 235 225 230 221 227 225 204 214 233 244 236 190 161 188 188 169 199 234 227 241 262 272 266 240 219 261 268 87 323 259 136 128 271 267 279 277 252 212 173 145 117 121 124 122 133 114 93 96
329 328 328 326 325 325 301 272 271 290 315 321 330 333 333 338 347 26 99 215 290 300 135 105 144 170 202 169 163 187 222 219 193 197 162 166 190 200 199 232 246 256 265 252 238 238 216 204 204 219 235 205 195 199 195 199 212 224 225 240 263 272 277 269 219 238 38 99 264 262 157 135 265 270 282 285 243 215 190 140 127 129 129 131 127 106 100 106
330 327 326 325 320 334 353 274 259 307 336 331 329 325 322 332 10 82 175 247 274 276 119 75 118 175 191 178 171 192 214 244 247 184 150 156 191 211 244 246 243 260 275 260 248 250 257 236 190 198 206 194 213 219 217 223 219 213 218 237 262 267 280 270 220 153 86 192 239 238 206 160 262 281 256 255 240 195 162 132 131 131 127 126 112 107 114 115
328 325 324 319 305 309 330 272 265 326 346 340 337 326 315 335 71 152 220 250 277 260 167 146 183 170 184 192 184 189 210 247 253 188 166 153 175 199 243 264 250 262 274 273 261 243 245 254 204 203 201 172 202 231 236 230 218 212 214 210 243 277 325 328 287 114 134 253 226 210 217 182 205 270 264 322 331 163 142 133 138 134 125 117 108 114 123 122
325 324 318 308 295 278 259 254 271 317 344 348 345 338 12 77 182 223 257 307 282 242 161 195 201 181 187 194 199 195 192 233 245 200 172 157 167 189 194 209 209 218 268 281 275 243 242 245 202 213 265 149 201 230 257 251 216 196 208 188 182 310 353 348 306 177 197 246 216 194 214 214 205 257 292 31 29 51 117 131 139 133 122 114 114 122 130 134
324 321 314 305 293 267 258 273 289 322 346 345 337 343 91 133 214 215 235 269 269 302 357 311 243 197 188 194 213 203 184 216 235 199 171 166 176 190 196 211 215 189 223 251 256 259 266 267 228 206 200 194 209 212 239 264 196 166 185 157 145 139 103 271 264 207 207 242 226 193 200 236 235 306 342 59 66 63 97 120 129 127 121 116 118 126 134 145
323 322 316 301 283 272 272 282 284 351 335 331 352 54 135 213 240 217 228 253 271 303 319 308 303 284 207 212 218 201 188 212 221 190 166 166 183 197 195 212 224 217 200 232 242 213 227 253 240 223 197 176 200 219 224 243 183 180 193 156 165 164 165 216 212 181 222 255 262 165 162 216 165 245 319 67 83 76 86 99 105 110 113 114 119 126 133 143
325 328 322 293 276 275 261 224 165 314 297 303 70 108 192 215 255 240 244 255 263 289 297 292 294 277 229 233 220 215 208 210 230 214 175 170 193 206 192 202 220 223 193 186 233 231 228 236 214 214 210 175 187 218 230 265 317 268 229 170 213 193 160 191 187 177 177 94 325 75 141 230 161 221 286 67 77 76 87 89 94 105 110 112 118 125 130 135
328 335 316 277 265 248 187 162 150 195 243 246 126 222 216 228 252 251 277 275 269 293 302 294 290 268 238 226 220 229 212 184 279 275 200 180 192 201 203 197 203 214 207 179 218 232 222 257 255 216 213 195 187 197 197 197 223 296 328 205 230 198 147 142 259 242 106 97 281 143 113 312 89 215 286 75 74 69 79 80 86 99 105 110 116 124 128 127
332 336 295 266 256 223 184 165 170 185 201 147 202 236 246 248 256 261 282 290 293 308 315 307 296 282 254 204 225 229 188 163 213 247 243 186 213 227 237 219 197 207 216 210 236 259 202 255 298 239 210 220 199 193 204 195 160 142 227 222 243 1 103 113 125 348 49 115 263 154 142 159 81 229 309 79 81 76 80 79 78 84 95 105 111 119 125 128
327 322 288 274 243 191 182 179 176 174 159 265 248 262 267 257 266 275 284 292 299 310 312 296 285 291 308 319 263 223 188 169 178 206 246 21 264 292 5 314 279 260 247 232 238 265 121 262 293 331 132 306 316 195 216 227 173 167 206 201 127 65 29 19 126 155 123 180 282 335 136 115 87 251 302 91 103 96 85 81 82 85 95 104 106 113 121 131
309 299 295 329 123 148 171 177 175 169 164 247 244 256 268 264 266 271 275 283 291 299 296 287 285 290 316 314 296 268 232 194 156 190 231 336 258 345 27 316 292 334 338 305 232 219 121 135 283 316 6 4 346 296 221 240 228 219 239 118 94 132 162 157 158 159 146 178 242 343 19 7 269 267 280 127 130 110 94 88 88 96 107 115 123 125 125 130
252 266 308 97 118 149 170 162 162 169 218 233 245 254 268 271 267 265 266 270 273 269 272 287 298 307 322 327 327 323 307 175 149 166 205 239 267 345 10 277 276 323 347 4 22 317 103 130 208 300 350 52 8 295 269 305 274 240 236 194 117 109 148 144 186 174 138 145 185 146 342 281 261 285 39 101 114 109 106 104 101 107 119 128 135 128 122 120
254 299 291 153 166 167 133 129 151 209 224 241 252 254 264 271 273 275 276 275 271 259 258 273 286 295 304 336 337 325 329 350 165 160 158 182 164 357 285 271 310 340 0 13 18 351 291 147 173 238 331 84 233 302 9 27 5 333 219 216 186 140 116 109 312 272 146 128 177 156 147 266 285 341 76 93 89 97 103 107 109 110 118 126 125 119 121 125
246 325 184 177 173 154 132 131 221 210 219 259 272 277 284 282 282 292 294 290 279 265 265 275 293 303 296 315 318 305 314 321 253 151 114 148 163 200 227 271 329 3 46 8 326 300 272 109 131 180 202 180 258 325 14 42 23 15 30 6 6 68 111 134 187 266 349 23 322 104 109 257 299 344 107 121 109 95 89 92 97 94 98 101 101 109 104 102
254 337 173 173 186 182 167 305 310 301 279 295 301 299 300 299 301 307 307 302 293 281 298 332 330 329 335 331 308 296 307 320 308 186 146 145 172 204 200 291 347 10 53 18 330 321 323 46 77 350 304 358 356 340 5 43 36 23 20 21 25 22 16 135 166 161 135 215 61 70 54 253 304 353 63 111 97 79 75 83 90 87 82 82 81 77 60 47
298 312 185 187 211 212 180 10 314 322 318 321 324 314 304 298 292 296 303 304 308 330 348 342 342 334 338 342 321 299 274 290 341 73 126 134 163 193 191 170 31 24 57 117 242 297 316 337 63 47 9 352 354 348 359 21 35 42 7 23 36 28 17 16 73 79 91 204 140 114 197 243 321 7 28 81 86 70 57 69 85 90 86 80 78 68 48 38
297 271 220 205 210 207 60 70 1 336 336 336 329 313 305 301 295 315 325 311 305 332 344 335 344 335 328 340 325 308 294 285 326 53 98 126 126 179 189 160 134 118 106 135 182 177 35 279 243 103 126 179 276 224 226 331 19 33 11 29 39 32 23 23 82 76 75 203 123 120 154 169 105 47 40 66 82 78 60 54 61 72 80 77 73 68 59 59
314 335 349 341 34 39 43 43 32 18 351 343 330 311 312 314 311 329 337 317 299 324 338 327 338 336 328 329 321 322 336 319 305 344 31 320 116 160 172 127 124 98 57 43 27 107 127 262 266 133 155 172 172 183 183 144 84 47 22 31 39 38 34 47 81 83 192 137 79 129 147 131 107 75 61 60 72 77 71 61 55 54 58 57 54 56 62 73
317 1 354 343 9 10 16 12 12 36 33 13 349 312 321 332 333 336 351 338 312 313 327 332 344 335 317 319 321 326 335 334 352 28 5 342 6 53 51 74 82 51 38 17 354 53 117 279 296 268 230 163 150 138 106 96 88 71 50 39 41 45 43 54 71 292 261 130 73 329 131 122 115 90 73 64 74 79 79 78 74 65 57 58 65 62 55 63
69 82 353 115 156 346 11 358 348 26 51 41 329 298 327 354 5 3 357 327 316 330 359 1 7 355 336 346 26 3 345 0 24 29 12 1 360 6 24 39 58 45 32 12 2 11 54 153 278 256 228 158 150 134 115 110 99 70 68 57 51 50 47 54 38 305 299 126 134 130 104 92 75 65 60 66 80 83 85 87 89 90 87 87 85 74 62 60
37 61 354 2 131 181 175 194 359 35 34 10 355 323 335 1 21 24 3 309 319 350 358 348 19 8 349 5 54 37 8 17 13 357 357 8 4 1 3 351 17 43 34 30 24 6 2 17 325 310 245 220 194 150 133 123 94 42 51 83 80 71 61 53 17 353 37 83 109 108 93 72 33 33 51 67 78 77 75 74 71 76 83 85 82 78 77 73
22 36 349 336 327 200 181 154 41 49 30 13 19 337 329 357 18 10 352 314 336 351 350 359 27 20 359 15 43 34 8 6 352 336 329 353 358 335 355 328 306 35 40 45 28 8 6 336 338 359 358 270 204 133 116 101 87 48 12 89 99 85 66 50 19 14 49 62 56 77 88 74 19 33 57 60 68 71 67 65 68 70 75 83 84 82 83 80
6 3 4 348 301 268 180 111 63 61 36 8 352 322 328 356 11 8 1 18 23 18 10 10 16 19 12 23 29 10 348 339 324 312 310 325 312 258 228 169 174 84 61 57 35 28 28 347 3 25 18 327 346 75 96 89 79 52 23 18 47 77 83 71 36 44 98 96 55 48 80 83 9 49 62 52 57 71 69 66 72 73 75 82 85 83 82 79
6 357 358 10 266 291 19 104 78 63 36 324 324 331 343 356 4 14 18 2 5 12 14 10 8 8 17 20 8 340 321 314 304 294 292 287 269 265 249 186 178 151 125 127 111 122 147 116 71 61 63 339 338 356 79 86 67 42 359 332 320 95 101 82 61 74 112 119 99 84 102 103 88 83 77 60 53 65 68 65 74 80 79 79 80 79 78 76